| time (UTC) | temp C | wind direction | speed KPH | gust KPH | rain 1hr cm | rain 24hr cm | rain mn cm | humidity % | barometer mb |
| 20260506175002 | 16 | 349 | 1.6 | 8.0 | 0.00 | 0.00 | 0.00 | 76 | 1018.7 |
| 20260506174502 | 16 | 352 | 1.6 | 6.4 | 0.00 | 0.00 | 0.00 | 76 | 1018.7 |
| 20260506174002 | 16 | 345 | 1.6 | 6.4 | 0.00 | 0.03 | 0.00 | 76 | 1018.7 |
| 20260506173502 | 16 | 342 | 1.6 | 6.4 | 0.00 | 0.03 | 0.00 | 77 | 1018.7 |
| 20260506173002 | 16 | 333 | 1.6 | 6.4 | 0.00 | 0.03 | 0.00 | 77 | 1018.7 |
| 20260506172502 | 16 | 315 | 1.6 | 6.4 | 0.00 | 0.03 | 0.00 | 78 | 1018.7 |
| 20260506172002 | 15 | 326 | 1.6 | 12.9 | 0.00 | 0.03 | 0.00 | 78 | 1018.7 |
| 20260506171523 | 15 | 343 | 1.6 | 12.9 | 0.00 | 0.03 | 0.00 | 78 | 1018.7 |
| 20260506171002 | 15 | 344 | 1.6 | 8.0 | 0.00 | 0.03 | 0.00 | 79 | 1018.7 |
| 20260506170523 | 15 | 348 | 1.6 | 6.4 | 0.00 | 0.03 | 0.00 | 80 | 1018.7 |
| 20260506170002 | 15 | 349 | 1.6 | 6.4 | 0.00 | 0.03 | 0.00 | 80 | 1018.7 |
| 20260506165502 | 15 | 351 | 1.6 | 6.4 | 0.00 | 0.03 | 0.00 | 81 | 1018.7 |
| 20260506165002 | 15 | 353 | 1.6 | 6.4 | 0.00 | 0.03 | 0.00 | 82 | 1018.7 |
| 20260506164523 | 14 | 354 | 1.6 | 8.0 | 0.00 | 0.03 | 0.00 | 83 | 1018.7 |
| 20260506164002 | 14 | 355 | 3.2 | 8.0 | 0.00 | 0.03 | 0.00 | 83 | 1018.7 |
| 20260506163502 | 14 | 353 | 3.2 | 8.0 | 0.00 | 0.03 | 0.00 | 84 | 1018.7 |
| 20260506163023 | 14 | 352 | 3.2 | 8.0 | 0.00 | 0.05 | 0.00 | 86 | 1018.7 |
| 20260506162502 | 13 | 7 | 1.6 | 6.4 | 0.00 | 0.08 | 0.00 | 87 | 1018.7 |
| 20260506162002 | 13 | 29 | 0.0 | 4.8 | 0.00 | 0.10 | 0.00 | 87 | 1018.7 |
| 20260506161502 | 13 | 329 | 0.0 | 1.6 | 0.00 | 0.10 | 0.00 | 88 | 1018.7 |
| 20260506161002 | 13 | 329 | 0.0 | 1.6 | 0.00 | 0.13 | 0.00 | 89 | 1018.7 |
| 20260506160502 | 12 | 329 | 0.0 | 1.6 | 0.00 | 0.15 | 0.00 | 89 | 1018.7 |
| 20260506160002 | 12 | 329 | 0.0 | 1.6 | 0.00 | 0.15 | 0.00 | 89 | 1018.7 |
| 20260506155502 | 12 | 329 | 0.0 | 1.6 | 0.00 | 0.15 | 0.00 | 89 | 1018.7 |
| 20260506155002 | 12 | 0 | 0.0 | 0.0 | 0.00 | 0.15 | 0.00 | 89 | 1018.7 |
| 20260506154502 | 12 | 0 | 0.0 | 0.0 | 0.00 | 0.15 | 0.00 | 89 | 1018.7 |
| 20260506154002 | 12 | 329 | 1.6 | 4.8 | 0.00 | 0.15 | 0.00 | 89 | 1018.7 |
| 20260506153502 | 12 | 329 | 1.6 | 4.8 | 0.00 | 0.15 | 0.00 | 89 | 1018.7 |
| 20260506153023 | 12 | 334 | 1.6 | 6.4 | 0.00 | 0.15 | 0.00 | 90 | 1018.7 |
| 20260506152523 | 11 | 334 | 1.6 | 6.4 | 0.00 | 0.15 | 0.00 | 90 | 1018.7 |
| 20260506152002 | 11 | 334 | 0.0 | 4.8 | 0.00 | 0.15 | 0.00 | 90 | 1018.7 |
| 20260506151502 | 11 | 0 | 0.0 | 0.0 | 0.00 | 0.15 | 0.00 | 90 | 1018.7 |
| 20260506151002 | 11 | 0 | 0.0 | 0.0 | 0.00 | 0.15 | 0.00 | 90 | 1018.7 |
| 20260506150502 | 11 | 0 | 0.0 | 0.0 | 0.00 | 0.15 | 0.00 | 90 | 1018.7 |
| 20260506150002 | 11 | 0 | 0.0 | 0.0 | 0.00 | 0.15 | 0.00 | 90 | 1018.7 |
| 20260506145502 | 11 | 0 | 0.0 | 0.0 | 0.00 | 0.15 | 0.00 | 90 | 1018.7 |
| 20260506145002 | 11 | 0 | 0.0 | 0.0 | 0.00 | 0.15 | 0.00 | 90 | 1018.7 |
| 20260506144502 | 11 | 0 | 0.0 | 0.0 | 0.00 | 0.15 | 0.00 | 90 | 1018.7 |
| 20260506144002 | 11 | 0 | 0.0 | 0.0 | 0.00 | 0.15 | 0.00 | 90 | 1018.7 |
| 20260506143502 | 11 | 0 | 0.0 | 0.0 | 0.00 | 0.15 | 0.00 | 90 | 1018.7 |
| 20260506143002 | 11 | 0 | 0.0 | 0.0 | 0.00 | 0.15 | 0.00 | 91 | 1018.7 |
| 20260506142502 | 11 | 0 | 0.0 | 0.0 | 0.00 | 0.15 | 0.00 | 91 | 1018.7 |
| 20260506142002 | 11 | 0 | 0.0 | 0.0 | 0.00 | 0.15 | 0.00 | 90 | 1018.7 |
| 20260506141502 | 11 | 0 | 0.0 | 0.0 | 0.00 | 0.15 | 0.00 | 90 | 1018.7 |
| 20260506141002 | 11 | 0 | 0.0 | 0.0 | 0.00 | 0.15 | 0.00 | 90 | 1018.7 |
| 20260506140502 | 11 | 0 | 0.0 | 0.0 | 0.00 | 0.15 | 0.00 | 90 | 1018.7 |
| 20260506140023 | 11 | 0 | 0.0 | 0.0 | 0.00 | 0.15 | 0.00 | 90 | 1018.7 |
| 20260506135523 | 11 | 0 | 0.0 | 0.0 | 0.00 | 0.15 | 0.00 | 90 | 1018.7 |
| 20260506135002 | 11 | 0 | 0.0 | 0.0 | 0.00 | 0.15 | 0.00 | 90 | 1018.7 |
| 20260506134502 | 11 | 338 | 0.0 | 1.6 | 0.00 | 0.15 | 0.00 | 90 | 1018.7 |
| 20260506134002 | 11 | 338 | 0.0 | 1.6 | 0.00 | 0.15 | 0.00 | 90 | 1018.7 |
| 20260506133502 | 11 | 338 | 0.0 | 1.6 | 0.00 | 0.15 | 0.00 | 90 | 1018.7 |
| 20260506133002 | 11 | 338 | 0.0 | 3.2 | 0.00 | 0.15 | 0.00 | 90 | 1018.7 |
| 20260506132523 | 11 | 338 | 0.0 | 4.8 | 0.00 | 0.15 | 0.00 | 90 | 1018.7 |
| 20260506132002 | 11 | 338 | 0.0 | 4.8 | 0.00 | 0.15 | 0.00 | 90 | 1018.7 |
| 20260506131502 | 11 | 0 | 0.0 | 0.0 | 0.00 | 0.15 | 0.00 | 90 | 1018.7 |
| 20260506131002 | 11 | 0 | 0.0 | 0.0 | 0.00 | 0.15 | 0.00 | 90 | 1018.7 |
| 20260506130503 | 11 | 0 | 0.0 | 0.0 | 0.00 | 0.15 | 0.00 | 90 | 1018.7 |
| 20260506130003 | 11 | 0 | 0.0 | 0.0 | 0.00 | 0.15 | 0.00 | 90 | 1018.7 |
| 20260506125502 | 11 | 0 | 0.0 | 0.0 | 0.00 | 0.15 | 0.00 | 90 | 1018.7 |
| 20260506125023 | 11 | 0 | 0.0 | 0.0 | 0.00 | 0.15 | 0.00 | 90 | 1018.7 |
| 20260506124502 | 11 | 0 | 0.0 | 0.0 | 0.00 | 0.15 | 0.00 | 90 | 1018.7 |
| 20260506124002 | 11 | 0 | 0.0 | 0.0 | 0.00 | 0.15 | 0.00 | 90 | 1018.7 |
| 20260506123502 | 11 | 0 | 0.0 | 0.0 | 0.00 | 0.15 | 0.00 | 90 | 1018.7 |
| 20260506123002 | 11 | 0 | 0.0 | 0.0 | 0.00 | 0.15 | 0.00 | 90 | 1018.7 |
| 20260506122502 | 11 | 0 | 0.0 | 0.0 | 0.00 | 0.15 | 0.00 | 90 | 1018.7 |
| 20260506122002 | 11 | 0 | 0.0 | 0.0 | 0.00 | 0.15 | 0.00 | 90 | 1018.7 |
| 20260506121502 | 11 | 0 | 0.0 | 0.0 | 0.00 | 0.15 | 0.00 | 90 | 1018.7 |
| 20260506121024 | 11 | 0 | 0.0 | 0.0 | 0.00 | 0.15 | 0.00 | 90 | 1018.7 |
| 20260506120502 | 11 | 0 | 0.0 | 0.0 | 0.00 | 0.18 | 0.00 | 90 | 1018.7 |
| 20260506120002 | 11 | 331 | 0.0 | 4.8 | 0.00 | 0.18 | 0.00 | 90 | 1018.7 |
| 20260506115502 | 11 | 331 | 0.0 | 4.8 | 0.00 | 0.18 | 0.00 | 90 | 1018.7 |
| 20260506115002 | 11 | 329 | 0.0 | 1.6 | 0.00 | 0.18 | 0.00 | 90 | 1018.7 |
| 20260506114502 | 11 | 329 | 0.0 | 3.2 | 0.00 | 0.18 | 0.00 | 90 | 1018.7 |
| 20260506114002 | 11 | 329 | 0.0 | 3.2 | 0.00 | 0.18 | 0.00 | 90 | 1018.7 |
| 20260506113523 | 11 | 329 | 0.0 | 3.2 | 0.00 | 0.18 | 0.00 | 90 | 1018.7 |
| 20260506113002 | 11 | 329 | 0.0 | 3.2 | 0.00 | 0.18 | 0.00 | 90 | 1018.7 |
| 20260506112502 | 11 | 329 | 0.0 | 1.6 | 0.00 | 0.20 | 0.00 | 90 | 1018.7 |
| 20260506112002 | 11 | 329 | 0.0 | 1.6 | 0.00 | 0.20 | 0.00 | 90 | 1018.7 |
| 20260506111502 | 11 | 329 | 0.0 | 3.2 | 0.00 | 0.20 | 0.00 | 90 | 1018.7 |
| 20260506111002 | 11 | 329 | 0.0 | 3.2 | 0.00 | 0.20 | 0.00 | 90 | 1018.7 |
| 20260506110502 | 11 | 329 | 0.0 | 1.6 | 0.00 | 0.20 | 0.00 | 90 | 1018.7 |
| 20260506110002 | 11 | 329 | 0.0 | 1.6 | 0.00 | 0.20 | 0.00 | 90 | 1014.3 |
| 20260506105502 | 11 | 329 | 0.0 | 1.6 | 0.00 | 0.20 | 0.00 | 90 | 1014.3 |
| 20260506105002 | 11 | 328 | 0.0 | 3.2 | 0.00 | 0.20 | 0.00 | 90 | 1014.3 |
| 20260506104502 | 11 | 328 | 0.0 | 3.2 | 0.00 | 0.20 | 0.00 | 90 | 1014.3 |
| 20260506104002 | 11 | 0 | 0.0 | 0.0 | 0.00 | 0.20 | 0.00 | 90 | 1014.3 |
| 20260506103502 | 11 | 0 | 0.0 | 0.0 | 0.00 | 0.20 | 0.00 | 90 | 1014.3 |
| 20260506103002 | 11 | 0 | 0.0 | 0.0 | 0.00 | 0.20 | 0.00 | 90 | 1014.3 |
| 20260506102502 | 11 | 0 | 0.0 | 0.0 | 0.00 | 0.20 | 0.00 | 90 | 1014.3 |
| 20260506102002 | 11 | 0 | 0.0 | 0.0 | 0.00 | 0.23 | 0.00 | 90 | 1014.3 |
| 20260506101502 | 11 | 0 | 0.0 | 0.0 | 0.00 | 0.23 | 0.00 | 90 | 1014.3 |
| 20260506101002 | 11 | 0 | 0.0 | 0.0 | 0.00 | 0.23 | 0.00 | 90 | 1014.3 |
| 20260506100502 | 11 | 0 | 0.0 | 0.0 | 0.00 | 0.25 | 0.00 | 90 | 1014.3 |
| 20260506100003 | 11 | 0 | 0.0 | 0.0 | 0.00 | 0.25 | 0.00 | 90 | 1014.3 |
| 20260506095502 | 11 | 0 | 0.0 | 0.0 | 0.00 | 0.25 | 0.00 | 90 | 1014.3 |
| 20260506095002 | 11 | 0 | 0.0 | 0.0 | 0.00 | 0.25 | 0.00 | 90 | 1014.3 |
| 20260506094523 | 11 | 0 | 0.0 | 0.0 | 0.00 | 0.25 | 0.00 | 90 | 1014.3 |
| 20260506094002 | 11 | 0 | 0.0 | 0.0 | 0.00 | 0.25 | 0.00 | 90 | 1014.3 |
| 20260506093502 | 11 | 0 | 0.0 | 0.0 | 0.00 | 0.25 | 0.00 | 90 | 1014.3 |
| 20260506093002 | 11 | 0 | 0.0 | 0.0 | 0.00 | 0.25 | 0.00 | 90 | 1014.3 |
| 20260506092502 | 11 | 0 | 0.0 | 0.0 | 0.00 | 0.25 | 0.00 | 90 | 1014.3 |
| 20260506092003 | 11 | 0 | 0.0 | 0.0 | 0.00 | 0.25 | 0.00 | 90 | 1014.3 |
| 20260506091502 | 11 | 0 | 0.0 | 0.0 | 0.00 | 0.25 | 0.00 | 90 | 1014.3 |
| 20260506091002 | 11 | 0 | 0.0 | 0.0 | 0.00 | 0.25 | 0.00 | 90 | 1014.3 |
| 20260506090502 | 11 | 0 | 0.0 | 0.0 | 0.00 | 0.25 | 0.00 | 90 | 1014.3 |
| 20260506090002 | 11 | 0 | 0.0 | 0.0 | 0.00 | 0.25 | 0.00 | 90 | 1014.3 |
| 20260506085502 | 11 | 0 | 0.0 | 0.0 | 0.00 | 0.25 | 0.00 | 90 | 1014.3 |
| 20260506085024 | 11 | 0 | 0.0 | 0.0 | 0.00 | 0.25 | 0.00 | 90 | 1014.3 |
| 20260506084502 | 11 | 0 | 0.0 | 0.0 | 0.00 | 0.25 | 0.00 | 90 | 1014.3 |
| 20260506084002 | 11 | 0 | 0.0 | 0.0 | 0.00 | 0.25 | 0.00 | 90 | 1014.3 |
| 20260506083502 | 11 | 0 | 0.0 | 0.0 | 0.00 | 0.25 | 0.00 | 90 | 1014.3 |
| 20260506083002 | 11 | 0 | 0.0 | 0.0 | 0.00 | 0.25 | 0.00 | 90 | 1014.3 |
| 20260506082502 | 11 | 0 | 0.0 | 0.0 | 0.00 | 0.25 | 0.00 | 90 | 1014.3 |
| 20260506082002 | 11 | 0 | 0.0 | 0.0 | 0.00 | 0.25 | 0.00 | 90 | 1014.3 |
| 20260506081502 | 11 | 0 | 0.0 | 0.0 | 0.00 | 0.25 | 0.00 | 90 | 1014.3 |
| 20260506081002 | 11 | 0 | 0.0 | 0.0 | 0.00 | 0.25 | 0.00 | 90 | 1014.3 |
| 20260506080503 | 11 | 0 | 0.0 | 0.0 | 0.00 | 0.25 | 0.00 | 90 | 1014.3 |
| 20260506073502 | 11 | 0 | 0.0 | 0.0 | 0.00 | 0.25 | 0.00 | 89 | 1014.3 |
| 20260506073002 | 11 | 0 | 0.0 | 0.0 | 0.00 | 0.25 | 0.00 | 89 | 1014.3 |
| 20260506072503 | 11 | 0 | 0.0 | 0.0 | 0.00 | 0.25 | 0.00 | 89 | 1014.3 |
| 20260506072002 | 11 | 0 | 0.0 | 0.0 | 0.00 | 0.25 | 0.00 | 89 | 1014.3 |
| 20260506071503 | 11 | 0 | 0.0 | 0.0 | 0.00 | 0.25 | 0.00 | 89 | 1014.3 |
| 20260506071002 | 11 | 0 | 0.0 | 0.0 | 0.00 | 0.25 | 0.00 | 89 | 1014.3 |
| 20260506070503 | 11 | 0 | 0.0 | 0.0 | 0.00 | 0.25 | 0.00 | 89 | 1014.3 |
| 20260506062502 | 11 | 330 | 0.0 | 3.2 | 0.00 | 0.25 | 0.25 | 89 | 1014.3 |
| 20260506062002 | 11 | 327 | 0.0 | 3.2 | 0.00 | 0.25 | 0.25 | 89 | 1014.3 |
| 20260506061523 | 11 | 320 | 0.0 | 1.6 | 0.00 | 0.25 | 0.25 | 89 | 1014.3 |
| 20260506061002 | 11 | 0 | 0.0 | 0.0 | 0.00 | 0.25 | 0.25 | 89 | 1014.3 |
| 20260506060524 | 11 | 0 | 0.0 | 0.0 | 0.00 | 0.25 | 0.25 | 89 | 1014.3 |
| 20260506051003 | 12 | 269 | 0.0 | 1.6 | 0.00 | 0.25 | 0.25 | 88 | 1014.3 |
| 20260506050503 | 12 | 270 | 0.0 | 1.6 | 0.00 | 0.25 | 0.25 | 88 | 1014.3 |
| 20260506045003 | 12 | 281 | 0.0 | 1.6 | 0.00 | 0.25 | 0.25 | 88 | 1014.3 |
| 20260506044523 | 12 | 277 | 0.0 | 1.6 | 0.00 | 0.25 | 0.25 | 88 | 1014.3 |
| 20260506044003 | 12 | 270 | 0.0 | 1.6 | 0.00 | 0.25 | 0.25 | 88 | 1014.3 |
| 20260506043503 | 12 | 268 | 0.0 | 1.6 | 0.00 | 0.25 | 0.25 | 88 | 1014.3 |
| 20260506043003 | 12 | 269 | 0.0 | 1.6 | 0.00 | 0.25 | 0.25 | 88 | 1014.3 |
| 20260506042502 | 12 | 0 | 0.0 | 0.0 | 0.00 | 0.25 | 0.25 | 88 | 1014.3 |
| 20260506042002 | 12 | 0 | 0.0 | 0.0 | 0.00 | 0.25 | 0.25 | 88 | 1014.3 |
| 20260506041503 | 12 | 0 | 0.0 | 0.0 | 0.00 | 0.25 | 0.25 | 88 | 1014.3 |
| 20260506041003 | 12 | 0 | 0.0 | 0.0 | 0.00 | 0.25 | 0.25 | 88 | 1014.3 |
| 20260506040503 | 12 | 0 | 0.0 | 0.0 | 0.00 | 0.25 | 0.25 | 88 | 1014.3 |
| 20260506040003 | 12 | 0 | 0.0 | 0.0 | 0.00 | 0.25 | 0.25 | 88 | 1014.3 |
| 20260506035503 | 12 | 0 | 0.0 | 0.0 | 0.00 | 0.25 | 0.25 | 88 | 1014.3 |
| 20260506035003 | 12 | 0 | 0.0 | 0.0 | 0.00 | 0.25 | 0.25 | 88 | 1014.3 |
| 20260506034502 | 12 | 248 | 0.0 | 1.6 | 0.00 | 0.25 | 0.25 | 87 | 1014.3 |
| 20260506034024 | 12 | 268 | 0.0 | 4.8 | 0.00 | 0.25 | 0.25 | 87 | 1014.3 |
| 20260506033524 | 12 | 268 | 0.0 | 4.8 | 0.00 | 0.25 | 0.25 | 87 | 1014.3 |
| 20260506033003 | 12 | 227 | 0.0 | 3.2 | 0.00 | 0.25 | 0.25 | 87 | 1014.3 |
| 20260506032524 | 12 | 267 | 0.0 | 6.4 | 0.00 | 0.25 | 0.25 | 87 | 1014.3 |
| 20260506032024 | 12 | 249 | 0.0 | 6.4 | 0.00 | 0.25 | 0.25 | 87 | 1014.3 |
| 20260506031503 | 12 | 166 | 0.0 | 3.2 | 0.00 | 0.25 | 0.25 | 86 | 1014.3 |
| 20260506031002 | 12 | 154 | 0.0 | 1.6 | 0.00 | 0.25 | 0.25 | 87 | 1014.3 |
| 20260506030503 | 12 | 131 | 0.0 | 3.2 | 0.00 | 0.25 | 0.25 | 86 | 1014.3 |
| 20260506030003 | 12 | 179 | 0.0 | 3.2 | 0.00 | 0.25 | 0.25 | 86 | 1014.3 |
| 20260506025503 | 12 | 290 | 0.0 | 3.2 | 0.00 | 0.25 | 0.25 | 86 | 1014.3 |
| 20260506025024 | 12 | 339 | 0.0 | 3.2 | 0.00 | 0.25 | 0.25 | 86 | 1014.3 |
| 20260506024503 | 12 | 352 | 0.0 | 3.2 | 0.00 | 0.25 | 0.25 | 86 | 1014.3 |
| 20260506024003 | 12 | 350 | 0.0 | 3.2 | 0.00 | 0.25 | 0.25 | 85 | 1014.3 |
| 20260506023524 | 12 | 342 | 0.0 | 3.2 | 0.00 | 0.25 | 0.25 | 85 | 1014.3 |
| 20260506023003 | 12 | 324 | 0.0 | 1.6 | 0.00 | 0.25 | 0.25 | 85 | 1014.3 |
| 20260506022524 | 12 | 289 | 0.0 | 4.8 | 0.00 | 0.25 | 0.25 | 85 | 1014.3 |
| 20260506022024 | 12 | 279 | 0.0 | 4.8 | 0.00 | 0.25 | 0.25 | 85 | 1014.3 |
| 20260506021503 | 13 | 284 | 0.0 | 3.2 | 0.00 | 0.25 | 0.25 | 85 | 1014.3 |
| 20260506021024 | 13 | 268 | 0.0 | 3.2 | 0.00 | 0.25 | 0.25 | 85 | 1014.3 |
| 20260506020503 | 13 | 238 | 0.0 | 4.8 | 0.00 | 0.25 | 0.25 | 85 | 1014.3 |
| 20260506020003 | 13 | 238 | 0.0 | 4.8 | 0.00 | 0.25 | 0.25 | 84 | 1014.3 |
| 20260506015503 | 13 | 238 | 1.6 | 6.4 | 0.00 | 0.25 | 0.25 | 84 | 1014.3 |
| 20260506015003 | 13 | 233 | 1.6 | 6.4 | 0.00 | 0.25 | 0.25 | 84 | 1014.3 |
| 20260506014503 | 13 | 232 | 1.6 | 8.0 | 0.00 | 0.25 | 0.25 | 84 | 1014.3 |
| 20260506014024 | 13 | 243 | 0.0 | 8.0 | 0.00 | 0.25 | 0.25 | 84 | 1014.3 |
| 20260506013524 | 13 | 280 | 0.0 | 4.8 | 0.00 | 0.25 | 0.25 | 84 | 1014.3 |
| 20260506013024 | 13 | 292 | 0.0 | 3.2 | 0.00 | 0.25 | 0.25 | 84 | 1014.3 |
| 20260506012503 | 13 | 291 | 0.0 | 3.2 | 0.00 | 0.25 | 0.25 | 84 | 1014.3 |
| 20260506012003 | 13 | 277 | 0.0 | 3.2 | 0.00 | 0.25 | 0.25 | 84 | 1014.3 |
| 20260506011503 | 13 | 261 | 0.0 | 3.2 | 0.00 | 0.25 | 0.25 | 84 | 1014.3 |
| 20260506011024 | 13 | 260 | 0.0 | 3.2 | 0.00 | 0.25 | 0.25 | 84 | 1014.3 |
| 20260506010524 | 13 | 270 | 0.0 | 3.2 | 0.00 | 0.25 | 0.25 | 84 | 1014.3 |
| 20260506010003 | 13 | 283 | 0.0 | 3.2 | 0.00 | 0.25 | 0.25 | 84 | 1014.3 |
| 20260506005503 | 13 | 275 | 0.0 | 1.6 | 0.00 | 0.25 | 0.25 | 84 | 1014.3 |
| 20260506005003 | 13 | 297 | 0.0 | 3.2 | 0.00 | 0.25 | 0.25 | 84 | 1014.3 |
| 20260506004503 | 13 | 288 | 0.0 | 3.2 | 0.00 | 0.25 | 0.25 | 84 | 1014.3 |
| 20260506004024 | 13 | 233 | 0.0 | 6.4 | 0.00 | 0.25 | 0.25 | 84 | 1014.3 |
| 20260506003503 | 13 | 246 | 0.0 | 6.4 | 0.00 | 0.25 | 0.25 | 83 | 1014.3 |
| 20260506003003 | 13 | 257 | 0.0 | 4.8 | 0.00 | 0.25 | 0.25 | 84 | 1014.3 |
| 20260506002503 | 13 | 252 | 0.0 | 6.4 | 0.00 | 0.25 | 0.25 | 84 | 1014.3 |
| 20260506002003 | 13 | 249 | 0.0 | 6.4 | 0.00 | 0.25 | 0.25 | 83 | 1014.3 |
| 20260506001503 | 13 | 234 | 0.0 | 3.2 | 0.00 | 0.25 | 0.25 | 84 | 1014.3 |
| 20260506001024 | 13 | 236 | 0.0 | 4.8 | 0.00 | 0.25 | 0.25 | 84 | 1014.3 |
| 20260506000503 | 13 | 244 | 0.0 | 4.8 | 0.00 | 0.25 | 0.25 | 84 | 1014.3 |
| 20260506000003 | 13 | 254 | 0.0 | 3.2 | 0.00 | 0.25 | 0.25 | 84 | 1014.3 |
| 20260505235503 | 13 | 253 | 0.0 | 3.2 | 0.00 | 0.25 | 0.25 | 84 | 1014.3 |
| 20260505235003 | 13 | 259 | 0.0 | 3.2 | 0.00 | 0.25 | 0.25 | 84 | 1014.3 |
| 20260505234524 | 13 | 273 | 0.0 | 1.6 | 0.00 | 0.25 | 0.25 | 84 | 1014.3 |
| 20260505234003 | 14 | 273 | 0.0 | 1.6 | 0.00 | 0.25 | 0.25 | 84 | 1014.3 |
| 20260505233524 | 14 | 270 | 0.0 | 3.2 | 0.00 | 0.25 | 0.25 | 84 | 1014.3 |
| 20260505233003 | 14 | 297 | 1.6 | 6.4 | 0.00 | 0.25 | 0.25 | 83 | 1014.3 |
| 20260505232503 | 14 | 279 | 1.6 | 6.4 | 0.00 | 0.25 | 0.25 | 83 | 1014.3 |
| 20260505232003 | 14 | 241 | 1.6 | 8.0 | 0.00 | 0.25 | 0.25 | 84 | 1014.3 |
| 20260505231503 | 14 | 266 | 0.0 | 8.0 | 0.00 | 0.25 | 0.25 | 84 | 1014.3 |
| 20260505231003 | 14 | 298 | 0.0 | 4.8 | 0.00 | 0.25 | 0.25 | 84 | 1014.3 |
| 20260505230524 | 13 | 290 | 0.0 | 4.8 | 0.00 | 0.25 | 0.25 | 85 | 1014.3 |
| 20260505230003 | 13 | 268 | 0.0 | 3.2 | 0.00 | 0.25 | 0.25 | 85 | 1014.3 |
| 20260505225503 | 13 | 259 | 1.6 | 9.7 | 0.00 | 0.25 | 0.25 | 85 | 1014.3 |
| 20260505225003 | 13 | 257 | 1.6 | 9.7 | 0.00 | 0.25 | 0.25 | 85 | 1014.3 |
| 20260505224503 | 13 | 259 | 0.0 | 4.8 | 0.00 | 0.25 | 0.25 | 86 | 1014.3 |
| 20260505224024 | 13 | 258 | 0.0 | 3.2 | 0.00 | 0.25 | 0.25 | 87 | 1014.3 |
| 20260505223524 | 13 | 244 | 0.0 | 3.2 | 0.00 | 0.25 | 0.25 | 87 | 1014.3 |
| 20260505223003 | 13 | 244 | 0.0 | 3.2 | 0.00 | 0.25 | 0.25 | 87 | 1014.3 |
| 20260505222503 | 13 | 245 | 0.0 | 3.2 | 0.00 | 0.25 | 0.25 | 87 | 1014.3 |
| 20260505222003 | 13 | 243 | 0.0 | 4.8 | 0.00 | 0.25 | 0.25 | 87 | 1014.3 |
| 20260505221524 | 13 | 252 | 0.0 | 4.8 | 0.00 | 0.25 | 0.25 | 88 | 1014.3 |
| 20260505221003 | 13 | 251 | 0.0 | 4.8 | 0.00 | 0.25 | 0.25 | 89 | 1014.3 |
| 20260505220503 | 13 | 240 | 0.0 | 3.2 | 0.00 | 0.25 | 0.25 | 89 | 1014.3 |
| 20260505220003 | 13 | 256 | 0.0 | 3.2 | 0.00 | 0.25 | 0.25 | 90 | 1014.3 |
| 20260505215524 | 13 | 257 | 0.0 | 3.2 | 0.00 | 0.25 | 0.25 | 90 | 1014.3 |
| 20260505215003 | 13 | 256 | 0.0 | 1.6 | 0.00 | 0.25 | 0.25 | 90 | 1014.3 |
| 20260505214524 | 13 | 255 | 0.0 | 1.6 | 0.00 | 0.25 | 0.25 | 91 | 1014.3 |
| 20260505214003 | 13 | 259 | 0.0 | 4.8 | 0.00 | 0.25 | 0.25 | 91 | 1014.3 |
| 20260505213503 | 13 | 281 | 0.0 | 4.8 | 0.00 | 0.25 | 0.25 | 91 | 1014.3 |
| 20260505213003 | 13 | 287 | 0.0 | 6.4 | 0.00 | 0.25 | 0.25 | 91 | 1014.3 |
| 20260505212503 | 12 | 265 | 0.0 | 6.4 | 0.00 | 0.25 | 0.25 | 92 | 1014.3 |
| 20260505212003 | 12 | 236 | 0.0 | 1.6 | 0.00 | 0.25 | 0.25 | 92 | 1014.3 |
| 20260505211503 | 12 | 233 | 0.0 | 3.2 | 0.00 | 0.25 | 0.25 | 92 | 1014.3 |
| 20260505211003 | 12 | 254 | 1.6 | 4.8 | 0.00 | 0.25 | 0.25 | 92 | 1014.3 |
| 20260505210503 | 12 | 279 | 1.6 | 4.8 | 0.00 | 0.25 | 0.25 | 93 | 1014.3 |
| 20260505210003 | 12 | 292 | 0.0 | 4.8 | 0.00 | 0.25 | 0.25 | 93 | 1014.3 |
| 20260505205524 | 12 | 233 | 0.0 | 4.8 | 0.00 | 0.25 | 0.25 | 93 | 1014.3 |
| 20260505205003 | 12 | 226 | 0.0 | 4.8 | 0.00 | 0.25 | 0.25 | 94 | 1014.3 |
| 20260505204503 | 12 | 261 | 0.0 | 3.2 | 0.00 | 0.25 | 0.25 | 94 | 1014.3 |
| 20260505204024 | 12 | 327 | 0.0 | 4.8 | 0.00 | 0.25 | 0.25 | 94 | 1014.3 |
| 20260505203503 | 12 | 356 | 0.0 | 4.8 | 0.00 | 0.25 | 0.25 | 94 | 1014.3 |
| 20260505203024 | 12 | 335 | 0.0 | 4.8 | 0.00 | 0.25 | 0.25 | 94 | 1014.3 |
| 20260505202503 | 12 | 296 | 0.0 | 4.8 | 0.00 | 0.25 | 0.25 | 94 | 1014.3 |
| 20260505202003 | 12 | 251 | 0.0 | 4.8 | 0.00 | 0.25 | 0.25 | 95 | 1014.3 |
| 20260505201503 | 12 | 224 | 0.0 | 8.0 | 0.00 | 0.25 | 0.25 | 95 | 1014.3 |
| 20260505201003 | 12 | 237 | 1.6 | 8.0 | 0.00 | 0.25 | 0.25 | 94 | 1014.3 |
| 20260505200503 | 12 | 298 | 0.0 | 6.4 | 0.00 | 0.25 | 0.25 | 95 | 1014.3 |
| 20260505200024 | 12 | 257 | 0.0 | 8.0 | 0.00 | 0.25 | 0.25 | 95 | 1014.3 |
| 20260505195503 | 12 | 248 | 0.0 | 8.0 | 0.00 | 0.25 | 0.25 | 95 | 1014.3 |
| 20260505195003 | 12 | 263 | 1.6 | 4.8 | 0.00 | 0.25 | 0.25 | 95 | 1014.3 |
| 20260505194524 | 12 | 231 | 1.6 | 6.4 | 0.00 | 0.25 | 0.25 | 95 | 1014.3 |
| 20260505194003 | 12 | 233 | 1.6 | 8.0 | 0.00 | 0.25 | 0.25 | 95 | 1014.3 |
| 20260505193503 | 12 | 242 | 1.6 | 8.0 | 0.00 | 0.25 | 0.25 | 95 | 1014.3 |
| 20260505193003 | 12 | 236 | 1.6 | 6.4 | 0.00 | 0.25 | 0.25 | 96 | 1014.3 |
| 20260505192503 | 12 | 244 | 1.6 | 6.4 | 0.00 | 0.25 | 0.25 | 95 | 1014.3 |
| 20260505192003 | 11 | 253 | 0.0 | 4.8 | 0.00 | 0.25 | 0.25 | 95 | 1014.3 |
| 20260505191503 | 11 | 226 | 0.0 | 8.0 | 0.00 | 0.25 | 0.25 | 95 | 1014.3 |
| 20260505191003 | 11 | 236 | 1.6 | 9.7 | 0.00 | 0.25 | 0.25 | 95 | 1014.3 |
| 20260505190503 | 11 | 238 | 1.6 | 9.7 | 0.00 | 0.25 | 0.25 | 95 | 1014.3 |
| 20260505190024 | 11 | 236 | 0.0 | 3.2 | 0.00 | 0.25 | 0.25 | 95 | 1014.3 |
| 20260505185503 | 12 | 266 | 0.0 | 3.2 | 0.00 | 0.25 | 0.25 | 95 | 1014.3 |
| 20260505185003 | 12 | 251 | 0.0 | 4.8 | 0.00 | 0.25 | 0.25 | 95 | 1014.3 |
| 20260505184503 | 12 | 256 | 1.6 | 6.4 | 0.00 | 0.25 | 0.25 | 95 | 1014.3 |
| 20260505184003 | 12 | 264 | 1.6 | 6.4 | 0.03 | 0.25 | 0.25 | 96 | 1014.3 |
| 20260505183503 | 12 | 256 | 1.6 | 8.0 | 0.03 | 0.25 | 0.25 | 96 | 1014.3 |
| 20260505183024 | 12 | 276 | 1.6 | 8.0 | 0.03 | 0.25 | 0.25 | 95 | 1014.3 |
| 20260505182503 | 12 | 298 | 0.0 | 3.2 | 0.03 | 0.25 | 0.25 | 96 | 1014.3 |
| 20260505182003 | 12 | 239 | 1.6 | 4.8 | 0.03 | 0.25 | 0.25 | 96 | 1014.3 |
| 20260505181503 | 11 | 251 | 1.6 | 4.8 | 0.03 | 0.25 | 0.25 | 96 | 1014.3 |
| 20260505181003 | 11 | 273 | 1.6 | 6.4 | 0.03 | 0.25 | 0.25 | 95 | 1014.3 |
| 20260505180503 | 11 | 261 | 1.6 | 6.4 | 0.03 | 0.25 | 0.25 | 95 | 1014.3 |
| 20260505180003 | 11 | 257 | 0.0 | 3.2 | 0.03 | 0.25 | 0.25 | 95 | 1014.3 |
| 20260505175503 | 11 | 265 | 0.0 | 4.8 | 0.03 | 0.25 | 0.25 | 95 | 1014.3 |